Regional Weather Roundup
Issued by NWS

Home | Current Version | Previous Version | Graphics & Text | Print | Product List | Glossary On
Versions: 1 2 3 4 5 6 7 8 9 10 11 12 13 14 15 16 17 18 19 20 21 22 23 24 25 26 27 28 29 30 31 32 33 34 35 36 37 38 39 40 41 42 43 44 45 46 47 48 49 50
727
ASUS43 KMKX 292121
RWRWI

WISCONSIN REGIONAL WEATHER ROUNDUP
NATIONAL WEATHER SERVICE MILWAUKEE/SULLIVAN WI
400 PM CDT FRI JUL 29 2016

NOTE: "FAIR" INDICATES FEW OR NO CLOUDS BELOW 12,000 FEET WITH NO
SIGNIFICANT WEATHER AND/OR OBSTRUCTIONS TO VISIBILITY.

WIZ001-002-006>008-014>016-023>028-292200-
NORTHWEST WISCONSIN

CITY           SKY/WX    TMP DP  RH WIND       PRES   REMARKS
SUPERIOR ARPT  SUNNY     72  55  54 NE9       30.08F
ASHLAND        SUNNY     73  57  57 NE10      30.08F
HAYWARD        MOSUNNY   75  54  47 NE10      30.06F
SIREN          NOT AVBL
CUMBERLAND     SUNNY     73  52  46 NE8       30.06F
RICE LAKE      SUNNY     75  52  45 E3        30.06F
CHETEK         SUNNY     76  53  44 MISG      30.05F
LADYSMITH      MOSUNNY   78  55  44 CALM      30.06F
EAU CLAIRE     MOSUNNY   79  58  48 N7        30.01F HX  80
MENOMONIE      SUNNY     82  47  29 NE7       30.03F HX  80
NEW RICHMOND   SUNNY     76  48  37 NE8       30.04F
OSCEOLA        SUNNY     75  53  46 NE8       30.07F
$$

WIZ003>005-009-010-017-018-292200-
NORTH CENTRAL WISCONSIN

CITY           SKY/WX    TMP DP  RH WIND       PRES   REMARKS
MANITOWISH WTR SUNNY     75  52  45 CALM      30.07F
ARBOR VITAE    SUNNY     77  55  46 CALM      30.06F
WOODRUFF       SUNNY     77  55  46 CALM      30.06F
RHINELANDER    MOSUNNY   76  53  44 CALM      30.06F
EAGLE RIVER    MOSUNNY   74  50  43 CALM      30.06S
LAND O LAKES   MOSUNNY   74  51  43 E3        30.07F
PHILLIPS       MOSUNNY   74  57  55 CALM      30.05F
TOMAHAWK       CLOUDY    73  57  58 NE3       30.05S
MEDFORD        CLOUDY    72  62  71 SE5       30.05S
MERRILL        CLOUDY    73  60  64 SE3       30.05S
$$

WIZ029-030-035-036-043>047-292200-
CENTRAL WISCONSIN

CITY           SKY/WX    TMP DP  RH WIND       PRES   REMARKS
WAUSAU         CLOUDY    74  60  61 E8        30.02F
MOSINEE        PTSUNNY   73  63  68 NE8       30.04F
MARSHFIELD     CLOUDY    75  59  57 E12       30.02F
STEVENS POINT  CLOUDY    71  61  72 E7        30.03S
WAUPACA        CLOUDY    76  64  66 NE6       30.01F
WAUTOMA        CLOUDY    72  64  78 NE7       30.01F
WISC RAPIDS    CLOUDY    72  61  68 E8        30.03F
CAMP DOUGLAS   CLOUDY    70  64  83 NE6       30.01F
$$

WIZ011>013-019>022-031-037>040-048>050-292200-
NORTHEAST WISCONSIN

CITY           SKY/WX    TMP DP  RH WIND       PRES   REMARKS
ANTIGO         CLOUDY    72  60  67 CALM      30.05F
SHAWANO        CLOUDY    78  60  53 E9        30.02F
OCONTO         PTSUNNY   75  59  57 NE8       30.02F
STURGEON BAY   SUNNY     76  56  49 NE13      30.03F
GREEN BAY      PTSUNNY   75  65  70 NE13      30.01F
MANITOWOC      CLOUDY    72  60  66 NE9G16    30.00F
APPLETON       CLOUDY    73  61  64 NE9       30.00F
CLINTONVILLE   CLOUDY    77  59  53 E9        30.01F
OSHKOSH        CLOUDY    74  62  66 NE12      29.99F
$$

WIZ032>034-041-042-053>061-292200-
SOUTHWEST WISCONSIN

CITY           SKY/WX    TMP DP  RH WIND       PRES   REMARKS
LA CROSSE      CLOUDY    76  64  66 NE6       29.98F
SPARTA         CLOUDY    74  64  70 NE9       30.01F
VIROQUA        PTSUNNY   73  64  73 NE7       30.00F
BOSCOBEL       LGT RAIN  68  66  93 E3        29.98S
PRAIRIE DU CHI CLOUDY    70  64  81 N8        29.98F
PLATTEVILLE    CLOUDY    70  68  93 NE9       29.97S
$$

WIZ056-057-062-063-064-067-068-292200-
SOUTH CENTRAL WISCONSIN

CITY           SKY/WX    TMP DP  RH WIND       PRES   REMARKS
REEDSBURG      CLOUDY    69  66  90 NE8       29.99F
BARABOO/DELLS  CLOUDY    68  64  85 NE8       30.00S
LONE ROCK      CLOUDY    70  66  87 N9        29.98F
MINERAL POINT  CLOUDY    72  68  88 NE9       29.97F
MADISON        PTSUNNY   73  66  78 NE14      29.97F
MIDDLETON      CLOUDY    73  68  84 N10       29.98F
WATERTOWN      CLOUDY    74  66  75 NE9       29.97S
MONROE         RAIN      70  68  94 NE9       29.96F
JANESVILLE     CLOUDY    75  66  73 NE6       29.94S
$$

WIZ051-052-058>065-066-070>072-292200-
SOUTHEAST WISCONSIN

CITY           SKY/WX    TMP DP  RH WIND       PRES   REMARKS
MILWAUKEE      CLOUDY    73  65  75 NE12G21   29.98R
WAUKESHA       CLOUDY    72  63  73 NE10G18   29.99R
MILWAUKEE/TIMM PTSUNNY   72  63  73 NE14G20   29.99R
RACINE         CLOUDY    72  65  78 N9        29.98S
BURLINGTON     CLOUDY    73  64  73 NE10G17   29.96F
KENOSHA        PTSUNNY   73  66  78 NE14      29.96S
FOND DU LAC    CLOUDY    76  64  66 NE9       29.99F
SHEBOYGAN      MOSUNNY   72  62  71 NE17      30.00S
WEST BEND      MOSUNNY   72  63  73 E10       29.98F
JUNEAU         PTSUNNY   72  65  77 NE10      30.00S
$$

LSZ147-162-292200-
LAKE SUPERIOR

STATION/POSITION TIME  TEMP    WIND        PRES    WAVE
                       AIR SEA DIR/SP/G            HT/PER
                 (UTC) (F)     (DEG/KT/KT) (MB)    (FT/S)
W MID LAKE BUOY  2050   63 62   10/  6/  8 1018.6F   0
DEVILS ISLAND    2100   65      10/  8/  8 1019.0F
PORT WING        2000   63      30/ 11/ 11 1019.3F
SAXON HARBOR     2000   67      30/  8/ 10 1018.6F
$$

LMZ867-665-643>646-292200-
LAKE MICHIGAN

STATION/POSITION TIME  TEMP    WIND        PRES    WAVE
                       AIR SEA DIR/SP/G            HT/PER
                 (UTC) (F)     (DEG/KT/KT) (MB)    (FT/S)
CHAMBERS ISLAND  2000   71      30/ 12/ 15 1017.3F
S GREEN BAY BUOY 2100   72 71   70/ 16/ 19 1015.8
N MID LAKE BUOY  2050   70 70   50/ 14/ 14 1016.3F   1/ 3
NORTHPORT PIER   2000   70      70/ 11/ 14 1017.6F
SISTER BAY       2036   80     110/ 10/ 16   N/A
ALGOMA LAKESHORE 2013           70/ 14/ 17   N/A
KEWAUNEE LAKESHO 2000   71      20/  4/  8 1016.5F
SHEBOYGAN LAKESH 2100   65      20/ 12/ 12 1016.1S
PORT WASHINGTON  2030   70      40/ 11/ 14 1015.9F
ATWATER BUOY     2100   64 61  360/  8/ 10 1016.8R
MILWAUKEE LAKESH 2010   68      20/ 17/ 20   N/A
S MID LAKE BUOY  2050   73 74   60/ 14/ 17 1013.3R   3/ 6
KENOSHA   LAKESH 2100   71      40/ 13/ 15 1013.9S
$$

TC  - TEMPERATURE IN CELSIUS
VSB - VISIBILITY IN STATUTE MILES
WCI - WIND CHILL INDEX
HX  - HEAT INDEX





USA.gov is the U.S. government's official web portal to all federal, state and local government web resources and services.